STARLINK-34745

Satellite information

Favourite Embed

Satellite Type and Status

PAYLOADIN ORBIT

Key statistics

Satellite STARLINK-34745 at a glance.

Uptime

30

Days in orbit

Revolutions

≈ 15.4

Per day

Orbit

SSO

Sun Synchronous Orbit

Inclination

97.6

Latest

Satellite identification and parameters

Extended collection of information and parameters for STARLINK-34745.

Object identification

Identified? True

Debris? False

Object name: STARLINK-34745

International designator: 2025-165B

Object number (NORAD): 65057

Object ID (CCSDS): 65057

Country: UNITED STATES OF AMERICA (US)

Current information (Y/N): Y

RCS size: LARGE

Orbital parameters

Period: 93.547 minutes

Inclination: 97.6007 deg

SMA: 6826.197 km

Apoapsis: 448.948 km

Periapsis: 447.175 km

RAAN: 314.9724 deg

Eccentricy: 0.00012987

Argument of periapsis: 73.9617 deg

Mean anomaly: 286.1771 deg

Mean motion: 15.39340075 rev/day

Mean motion (dot): 0.00052759 rev/day2

B* drag term: 0.0013457971 1/REarth

Two-line elements (TLE)

Creation date: Aug. 30, 2025, 3:38 a.m.

Reference frame: TEME

Reference center: EARTH

Epoch: Aug. 29, 2025, 6:47 p.m. UTC

TLE line 0: 0 STARLINK-34745

TLE line 1: 1 65057U 25165B 25241.78322076 .00052759 00000-0 13458-2 0 9992

TLE line 2: 2 65057 97.6007 314.9724 0001299 73.9617 286.1771 15.39340075 5710

Live tracking on map

Real-time ground track for satellite STARLINK-34745.

In-orbit conjunctions

There are no conjunctions computed for STARLINK-34745, at the moment. Check back to stay up to date, as we update our databases every day.

Go to all conjunctions

Associated space launch

A batch of 19 satellites for the Starlink mega-constellation - SpaceX's project for space-based Internet communication system.

STARLINK-34745 was lifted into orbit during the mission ‘Falcon 9 Block 5 | Starlink Group 13-4’, on board a Falcon 9 space rocket.

The launch took place on July 31, 2025, 6:35 p.m. from Space Launch Complex 4E.

For more information about the launch, click the button.

Launch to space Falcon 9 Block 5 | Starlink Group 13-4
Falcon 9 Block 5 | Starlink Group 13-4

Agency: SpaceX

Status: Launch Successful

Launch date: July 31, 2025, 6:35 p.m. UTC

Rocket: Falcon 9

Launch pad: Space Launch Complex 4E

Location: Vandenberg SFB, CA, USA

...

Latest news about this satellite

News about space launch
SpaceX launches West Coast Falcon 9 rocket on Starlink 13-4 mission

Some classified satellites might have hitched a ride with 19 Starlink satellites launched by SpaceX from the company’s West Coast launch site on Thursday.

News about space launch
Launch Roundup: SpaceX to launch Crew-11 to ISS; ISRO and NASA launch new SAR satellite

With 10 launches scheduled from around the world, this week’s launch manifest is among the… The post Launch Roundup: SpaceX to launch Crew-11 to ISS; ISRO and NASA launch new SAR satellite appeared first on NASASpaceFlight.com.


Newsletter sign-up

Weekly statistics, charts and insights to help you stay on top of the space industry.